Time,TemperatureF,DewpointF,PressureIn,WindDirection,WindDirectionDegrees,WindSpeedMPH,WindSpeedGustMPH,Humidity,HourlyPrecipIn,Conditions,Clouds,dailyrainin,SoftwareType,DateUTC
2013-04-02 00:00:00,25.3,3.9,30.16,NW,315,5.0,8.0,39,0.00,,,0.00,meteohub,2013-04-02 05:00:00,
2013-04-02 00:06:00,25.3,3.9,30.16,NW,315,5.0,8.0,39,0.00,,,0.00,meteohub,2013-04-02 05:06:00,
2013-04-02 00:11:00,25.3,3.9,30.16,NNW,338,6.0,8.0,39,0.00,,,0.00,meteohub,2013-04-02 05:11:00,
2013-04-02 00:16:00,25.2,3.7,30.17,NW,315,4.0,7.0,39,0.00,,,0.00,meteohub,2013-04-02 05:16:00,
2013-04-02 00:22:00,25.2,4.3,30.16,West,270,7.0,8.0,40,0.00,,,0.00,meteohub,2013-04-02 05:22:00,
2013-04-02 00:27:00,25.2,4.3,30.17,West,270,8.0,8.0,40,0.00,,,0.00,meteohub,2013-04-02 05:27:00,
2013-04-02 00:32:00,25.2,3.7,30.16,SW,225,6.0,8.0,39,0.00,,,0.00,meteohub,2013-04-02 05:32:00,
2013-04-02 00:37:00,25.2,3.7,30.16,North,0,5.0,9.0,39,0.00,,,0.00,meteohub,2013-04-02 05:37:00,
2013-04-02 00:42:00,25.2,4.3,30.16,West,270,5.0,9.0,40,0.00,,,0.00,meteohub,2013-04-02 05:42:00,
2013-04-02 00:47:00,25.2,4.3,30.17,West,270,5.0,9.0,40,0.00,,,0.00,meteohub,2013-04-02 05:47:00,
2013-04-02 00:52:00,25.3,4.5,30.16,West,270,11.0,11.0,40,0.00,,,0.00,meteohub,2013-04-02 05:52:00,
2013-04-02 00:57:00,25.3,4.5,30.16,SW,225,5.0,11.0,40,0.00,,,0.00,meteohub,2013-04-02 05:57:00,
2013-04-02 01:02:00,25.3,4.5,30.17,NW,315,6.0,11.0,40,0.00,,,0.00,meteohub,2013-04-02 06:02:00,
2013-04-02 01:07:00,25.3,4.5,30.17,NW,315,6.0,11.0,40,0.00,,,0.00,meteohub,2013-04-02 06:07:00,
2013-04-02 01:13:00,25.3,4.5,30.16,NW,315,11.0,11.0,40,0.00,,,0.00,meteohub,2013-04-02 06:13:00,
2013-04-02 01:18:00,25.2,4.3,30.17,South,180,4.0,11.0,40,0.00,,,0.00,meteohub,2013-04-02 06:18:00,
2013-04-02 01:23:00,25.2,4.3,30.17,NW,315,4.0,11.0,40,0.00,,,0.00,meteohub,2013-04-02 06:23:00,
2013-04-02 01:28:00,25.2,4.3,30.16,NW,315,4.0,11.0,40,0.00,,,0.00,meteohub,2013-04-02 06:28:00,
2013-04-02 01:33:00,25.0,4.6,30.17,North,0,4.0,11.0,41,0.00,,,0.00,meteohub,2013-04-02 06:33:00,
2013-04-02 01:38:00,25.0,4.6,30.16,North,0,4.0,7.0,41,0.00,,,0.00,meteohub,2013-04-02 06:38:00,
2013-04-02 01:45:00,24.6,4.8,30.17,NW,315,6.0,6.0,42,0.00,,,0.00,meteohub,2013-04-02 06:45:00,
2013-04-02 01:50:00,24.6,5.4,30.16,SW,225,6.0,6.0,43,0.00,,,0.00,meteohub,2013-04-02 06:50:00,
2013-04-02 01:55:00,24.6,5.4,30.16,NNE,23,8.0,8.0,43,0.00,,,0.00,meteohub,2013-04-02 06:55:00,
2013-04-02 02:00:00,24.4,5.2,30.16,West,270,4.0,8.0,43,0.00,,,0.00,meteohub,2013-04-02 07:00:00,
2013-04-02 02:05:00,24.4,5.2,30.16,West,270,4.0,8.0,43,0.00,,,0.00,meteohub,2013-04-02 07:05:00,
2013-04-02 02:10:00,24.4,5.2,30.17,West,270,4.0,8.0,43,0.00,,,0.00,meteohub,2013-04-02 07:10:00,
2013-04-02 02:16:00,24.4,5.7,30.17,SW,225,6.0,6.0,44,0.00,,,0.00,meteohub,2013-04-02 07:16:00,
2013-04-02 02:21:00,24.4,5.7,30.17,SW,225,6.0,6.0,44,0.00,,,0.00,meteohub,2013-04-02 07:21:00,
2013-04-02 02:31:00,24.4,6.1,30.17,West,270,5.0,6.0,45,0.00,,,0.00,meteohub,2013-04-02 07:31:00,
2013-04-02 02:37:00,24.4,6.1,30.17,West,270,5.0,5.0,45,0.00,,,0.00,meteohub,2013-04-02 07:37:00,
2013-04-02 02:42:00,24.4,6.1,30.16,West,270,5.0,5.0,45,0.00,,,0.00,meteohub,2013-04-02 07:42:00,
2013-04-02 02:47:00,24.3,5.9,30.16,West,270,9.0,9.0,45,0.00,,,0.00,meteohub,2013-04-02 07:47:00,
2013-04-02 02:52:00,24.3,5.9,30.16,West,270,9.0,9.0,45,0.00,,,0.00,meteohub,2013-04-02 07:52:00,
2013-04-02 03:12:00,24.1,6.3,30.16,East,90,5.0,-999.0,46,0.00,,,0.00,meteohub,2013-04-02 08:12:00,
2013-04-02 03:17:00,24.1,6.3,30.17,East,90,5.0,5.0,46,0.00,,,0.00,meteohub,2013-04-02 08:17:00,
2013-04-02 03:22:00,24.1,6.3,30.16,East,90,5.0,5.0,46,0.00,,,0.00,meteohub,2013-04-02 08:22:00,
2013-04-02 03:28:00,23.9,6.6,30.16,North,0,7.0,7.0,47,0.00,,,0.00,meteohub,2013-04-02 08:28:00,
2013-04-02 03:33:00,23.9,6.6,30.17,North,0,7.0,7.0,47,0.00,,,0.00,meteohub,2013-04-02 08:33:00,
2013-04-02 03:39:00,23.9,6.6,30.16,North,0,7.0,7.0,47,0.00,,,0.00,meteohub,2013-04-02 08:39:00,
2013-04-02 03:59:00,23.7,7.0,30.16,West,270,6.0,-999.0,48,0.00,,,0.00,meteohub,2013-04-02 08:59:00,
2013-04-02 04:05:00,23.7,7.0,30.16,West,270,6.0,6.0,48,0.00,,,0.00,meteohub,2013-04-02 09:05:00,
2013-04-02 04:10:00,23.7,7.0,30.16,West,270,6.0,6.0,48,0.00,,,0.00,meteohub,2013-04-02 09:10:00,
2013-04-02 04:15:00,23.5,6.8,30.16,West,270,7.0,7.0,48,0.00,,,0.00,meteohub,2013-04-02 09:15:00,
2013-04-02 04:20:00,23.5,6.8,30.16,West,270,7.0,7.0,48,0.00,,,0.00,meteohub,2013-04-02 09:20:00,
2013-04-02 04:25:00,23.5,6.8,30.16,West,270,7.0,7.0,48,0.00,,,0.00,meteohub,2013-04-02 09:25:00,
2013-04-02 04:31:00,23.5,6.8,30.16,NE,45,6.0,7.0,48,0.00,,,0.00,meteohub,2013-04-02 09:31:00,
2013-04-02 04:36:00,23.5,6.8,30.16,NE,45,6.0,7.0,48,0.00,,,0.00,meteohub,2013-04-02 09:36:00,
2013-04-02 04:41:00,23.5,6.8,30.16,NE,45,6.0,6.0,48,0.00,,,0.00,meteohub,2013-04-02 09:41:00,
2013-04-02 05:45:00,22.6,6.8,30.18,North,0,8.0,-999.0,50,-99.99,,,0.00,meteohub,2013-04-02 10:45:00,
2013-04-02 05:50:00,22.6,6.8,30.18,North,0,8.0,8.0,50,0.00,,,0.00,meteohub,2013-04-02 10:50:00,
2013-04-02 05:55:00,22.6,6.8,30.18,WNW,293,8.0,8.0,50,0.00,,,0.00,meteohub,2013-04-02 10:55:00,
2013-04-02 06:01:00,22.6,6.8,30.18,WNW,293,8.0,8.0,50,0.00,,,0.00,meteohub,2013-04-02 11:01:00,
2013-04-02 06:19:00,22.3,10.2,30.19,West,270,2.0,8.0,59,0.00,,,0.00,meteohub,2013-04-02 11:19:00,
2013-04-02 06:24:00,22.3,10.2,30.19,West,270,2.0,-999.0,59,0.00,,,0.00,meteohub,2013-04-02 11:24:00,
2013-04-02 06:29:00,22.3,10.2,30.19,West,270,2.0,2.0,59,0.00,,,0.00,meteohub,2013-04-02 11:29:00,
2013-04-02 06:45:00,22.3,7.0,30.19,NNE,23,6.0,-999.0,51,0.00,,,0.00,meteohub,2013-04-02 11:45:00,
2013-04-02 06:51:00,22.3,7.0,30.19,South,180,4.0,6.0,51,0.01,,,0.01,meteohub,2013-04-02 11:51:00,
2013-04-02 06:56:00,22.5,7.0,30.19,SW,225,4.0,6.0,51,0.01,,,0.01,meteohub,2013-04-02 11:56:00,
2013-04-02 07:02:00,22.6,7.2,30.19,East,90,6.0,6.0,51,0.01,,,0.01,meteohub,2013-04-02 12:02:00,
2013-04-02 07:07:00,22.8,7.3,30.19,NW,315,5.0,6.0,51,0.01,,,0.01,meteohub,2013-04-02 12:07:00,
2013-04-02 07:12:00,23.0,7.5,30.20,ENE,68,6.0,6.0,51,0.01,,,0.01,meteohub,2013-04-02 12:12:00,
2013-04-02 07:17:00,23.0,7.5,30.20,ENE,68,6.0,6.0,51,0.01,,,0.01,meteohub,2013-04-02 12:17:00,
2013-04-02 07:22:00,23.5,7.7,30.20,West,270,5.0,6.0,50,0.01,,,0.01,meteohub,2013-04-02 12:22:00,
2013-04-02 07:27:00,23.7,7.9,30.21,South,180,8.0,8.0,50,0.01,,,0.01,meteohub,2013-04-02 12:27:00,
2013-04-02 07:32:00,23.7,7.9,30.21,South,180,8.0,8.0,50,0.00,,,0.01,meteohub,2013-04-02 12:32:00,
2013-04-02 07:37:00,23.7,7.9,30.21,South,180,8.0,8.0,50,0.00,,,0.01,meteohub,2013-04-02 12:37:00,
2013-04-02 07:53:00,25.3,7.9,30.22,South,180,5.0,-999.0,47,0.00,,,0.01,meteohub,2013-04-02 12:53:00,
2013-04-02 07:58:00,25.5,8.1,30.22,NW,315,11.0,-999.0,47,0.00,,,0.01,meteohub,2013-04-02 12:58:00,
2013-04-02 08:04:00,25.5,8.1,30.22,NW,315,11.0,11.0,47,0.00,,,0.01,meteohub,2013-04-02 13:04:00,
2013-04-02 08:09:00,26.1,8.1,30.22,NW,315,6.0,11.0,46,0.00,,,0.01,meteohub,2013-04-02 13:09:00,
2013-04-02 08:14:00,26.1,7.7,30.22,North,0,8.0,11.0,45,0.00,,,0.01,meteohub,2013-04-02 13:14:00,
2013-04-02 08:19:00,26.4,7.5,30.22,North,0,5.0,11.0,44,0.00,,,0.01,meteohub,2013-04-02 13:19:00,
2013-04-02 08:24:00,26.4,7.5,30.22,North,0,5.0,11.0,44,0.00,,,0.01,meteohub,2013-04-02 13:24:00,
2013-04-02 08:29:00,26.8,7.7,30.22,West,270,5.0,8.0,44,0.00,,,0.01,meteohub,2013-04-02 13:29:00,
2013-04-02 08:35:00,27.3,7.7,30.22,NE,45,6.0,6.0,43,0.00,,,0.01,meteohub,2013-04-02 13:35:00,
2013-04-02 08:40:00,27.3,7.7,30.22,NE,45,6.0,6.0,43,0.00,,,0.01,meteohub,2013-04-02 13:40:00,
2013-04-02 08:45:00,27.3,6.8,30.22,NE,45,7.0,7.0,41,0.00,,,0.01,meteohub,2013-04-02 13:45:00,
2013-04-02 08:51:00,27.7,6.4,30.22,SW,225,7.0,7.0,40,0.00,,,0.01,meteohub,2013-04-02 13:51:00,
2013-04-02 08:56:00,28.0,6.8,30.22,West,270,5.0,8.0,40,0.00,,,0.01,meteohub,2013-04-02 13:56:00,
2013-04-02 09:01:00,28.0,6.8,30.22,West,270,5.0,8.0,40,0.00,,,0.01,meteohub,2013-04-02 14:01:00,
2013-04-02 09:06:00,28.0,6.8,30.22,West,270,5.0,7.0,40,0.00,,,0.01,meteohub,2013-04-02 14:06:00,
2013-04-02 09:12:00,28.0,6.8,30.22,West,270,5.0,5.0,40,0.00,,,0.01,meteohub,2013-04-02 14:12:00,
2013-04-02 09:24:00,29.8,7.3,30.22,SSE,158,8.0,8.0,38,0.00,,,0.01,meteohub,2013-04-02 14:24:00,
2013-04-02 09:29:00,30.2,5.9,30.22,West,270,7.0,-999.0,35,0.00,,,0.01,meteohub,2013-04-02 14:29:00,
2013-04-02 09:35:00,30.7,7.0,30.22,SW,225,4.0,8.0,36,0.00,,,0.01,meteohub,2013-04-02 14:35:00,
2013-04-02 09:40:00,30.9,6.4,30.22,NW,315,6.0,8.0,35,0.00,,,0.01,meteohub,2013-04-02 14:40:00,
2013-04-02 09:45:00,31.1,5.4,30.22,NE,45,11.0,11.0,33,0.76,,,0.77,meteohub,2013-04-02 14:45:00,
2013-04-02 09:50:00,31.3,4.8,30.22,NE,45,7.0,11.0,32,0.76,,,0.77,meteohub,2013-04-02 14:50:00,
2013-04-02 09:55:00,31.6,5.9,30.22,NW,315,3.0,11.0,33,0.76,,,0.77,meteohub,2013-04-02 14:55:00,
2013-04-02 10:00:00,32.0,5.5,30.22,North,0,7.0,11.0,32,0.76,,,0.77,meteohub,2013-04-02 15:00:00,
2013-04-02 10:05:00,32.0,5.5,30.22,North,0,7.0,9.0,32,0.76,,,0.77,meteohub,2013-04-02 15:05:00,
2013-04-02 10:11:00,32.4,4.5,30.22,West,270,10.0,10.0,30,0.76,,,0.77,meteohub,2013-04-02 15:11:00,
2013-04-02 10:16:00,32.4,4.5,30.22,West,270,8.0,10.0,30,0.76,,,0.77,meteohub,2013-04-02 15:16:00,
2013-04-02 10:22:00,32.7,3.9,30.22,West,270,8.0,13.0,29,0.76,,,0.77,meteohub,2013-04-02 15:22:00,
2013-04-02 10:27:00,33.4,3.7,30.22,West,270,11.0,13.0,28,0.76,,,0.77,meteohub,2013-04-02 15:27:00,
2013-04-02 10:32:00,33.6,3.2,30.23,NW,315,7.0,13.0,27,0.76,,,0.77,meteohub,2013-04-02 15:32:00,
2013-04-02 10:37:00,33.6,2.3,30.22,NW,315,13.0,15.0,26,0.76,,,0.77,meteohub,2013-04-02 15:37:00,
2013-04-02 10:42:00,33.6,1.6,30.22,South,180,9.0,15.0,25,0.76,,,0.77,meteohub,2013-04-02 15:42:00,
2013-04-02 10:47:00,33.8,2.5,30.22,SW,225,8.0,13.0,26,0.00,,,0.77,meteohub,2013-04-02 15:47:00,
2013-04-02 10:52:00,34.0,1.8,30.22,South,180,5.0,13.0,25,0.00,,,0.77,meteohub,2013-04-02 15:52:00,
2013-04-02 10:57:00,34.2,0.1,30.23,NE,45,8.0,10.0,23,0.00,,,0.77,meteohub,2013-04-02 15:57:00,
2013-04-02 11:02:00,34.2,1.0,30.22,SE,135,8.0,12.0,24,0.00,,,0.77,meteohub,2013-04-02 16:02:00,
2013-04-02 11:08:00,34.5,1.4,30.22,North,0,8.0,12.0,24,0.00,,,0.77,meteohub,2013-04-02 16:08:00,
2013-04-02 11:13:00,34.3,1.2,30.23,North,0,14.0,14.0,24,0.00,,,0.77,meteohub,2013-04-02 16:13:00,
2013-04-02 11:18:00,34.7,0.7,30.23,North,0,9.0,14.0,23,0.00,,,0.77,meteohub,2013-04-02 16:18:00,
2013-04-02 11:23:00,34.9,0.9,30.22,NW,315,8.0,14.0,23,0.00,,,0.77,meteohub,2013-04-02 16:23:00,
2013-04-02 11:28:00,35.1,1.0,30.22,NW,315,12.0,14.0,23,0.00,,,0.77,meteohub,2013-04-02 16:28:00,
2013-04-02 11:33:00,35.4,2.1,30.22,NW,315,10.0,13.0,24,0.00,,,0.77,meteohub,2013-04-02 16:33:00,
2013-04-02 11:39:00,35.8,1.6,30.22,NW,315,10.0,13.0,23,0.00,,,0.77,meteohub,2013-04-02 16:39:00,
2013-04-02 11:44:00,35.4,-0.6,30.22,West,270,12.0,12.0,21,0.00,,,0.77,meteohub,2013-04-02 16:44:00,
2013-04-02 11:50:00,35.6,0.5,30.22,West,270,11.0,13.0,22,0.00,,,0.77,meteohub,2013-04-02 16:50:00,
2013-04-02 11:55:00,35.8,-0.4,30.22,NW,315,11.0,15.0,21,0.00,,,0.77,meteohub,2013-04-02 16:55:00,
2013-04-02 12:00:00,35.8,-0.4,30.22,NW,315,10.0,17.0,21,0.00,,,0.77,meteohub,2013-04-02 17:00:00,
2013-04-02 12:05:00,36.0,-0.2,30.22,North,0,11.0,17.0,21,0.00,,,0.77,meteohub,2013-04-02 17:05:00,
2013-04-02 12:11:00,36.1,0.9,30.22,North,0,4.0,17.0,22,0.00,,,0.77,meteohub,2013-04-02 17:11:00,
2013-04-02 12:16:00,36.5,0.3,30.21,NW,315,11.0,11.0,21,0.00,,,0.77,meteohub,2013-04-02 17:16:00,
2013-04-02 12:22:00,36.7,-1.7,30.21,West,270,14.0,14.0,19,0.00,,,0.77,meteohub,2013-04-02 17:22:00,
2013-04-02 12:27:00,37.0,0.7,30.21,NW,315,13.0,14.0,21,0.00,,,0.77,meteohub,2013-04-02 17:27:00,
2013-04-02 12:32:00,37.2,-3.6,30.21,NW,315,16.0,16.0,17,0.00,,,0.77,meteohub,2013-04-02 17:32:00,
2013-04-02 12:37:00,37.4,-4.7,30.21,West,270,13.0,16.0,16,0.00,,,0.77,meteohub,2013-04-02 17:37:00,
2013-04-02 12:43:00,36.9,-5.1,30.21,West,270,12.0,17.0,16,0.00,,,0.77,meteohub,2013-04-02 17:43:00,
2013-04-02 12:49:00,37.0,-3.8,30.21,SW,225,8.0,20.0,17,0.00,,,0.77,meteohub,2013-04-02 17:49:00,
2013-04-02 12:53:00,37.0,-2.6,30.20,NW,315,11.0,20.0,18,0.00,,,0.77,meteohub,2013-04-02 17:53:00,
2013-04-02 12:59:00,36.9,-3.8,30.21,East,90,10.0,18.0,17,0.00,,,0.77,meteohub,2013-04-02 17:59:00,
2013-04-02 13:04:00,37.0,-2.6,30.20,NE,45,21.0,21.0,18,0.00,,,0.77,meteohub,2013-04-02 18:04:00,
2013-04-02 13:09:00,37.0,-3.8,30.20,West,270,7.0,17.0,17,0.00,,,0.77,meteohub,2013-04-02 18:09:00,
2013-04-02 13:14:00,37.2,-2.4,30.20,NW,315,21.0,21.0,18,0.00,,,0.77,meteohub,2013-04-02 18:14:00,
2013-04-02 13:19:00,37.8,0.3,30.20,West,270,10.0,21.0,20,0.00,,,0.77,meteohub,2013-04-02 18:19:00,
2013-04-02 13:24:00,38.3,-1.5,30.20,NW,315,15.0,21.0,18,0.00,,,0.77,meteohub,2013-04-02 18:24:00,
2013-04-02 13:30:00,37.9,-0.8,30.20,NW,315,11.0,21.0,19,0.00,,,0.77,meteohub,2013-04-02 18:30:00,
2013-04-02 13:35:00,37.6,-0.9,30.20,NW,315,10.0,18.0,19,0.00,,,0.77,meteohub,2013-04-02 18:35:00,
2013-04-02 13:40:00,37.8,0.3,30.19,NW,315,16.0,18.0,20,0.00,,,0.77,meteohub,2013-04-02 18:40:00,
2013-04-02 13:45:00,37.6,-0.9,30.20,North,0,12.0,17.0,19,0.00,,,0.77,meteohub,2013-04-02 18:45:00,
2013-04-02 13:51:00,37.4,0.0,30.19,NE,45,8.0,17.0,20,0.00,,,0.77,meteohub,2013-04-02 18:51:00,
2013-04-02 13:56:00,37.8,-2.0,30.19,NNE,23,19.0,19.0,18,0.00,,,0.77,meteohub,2013-04-02 18:56:00,
2013-04-02 14:01:00,37.6,0.1,30.20,West,270,8.0,19.0,20,0.00,,,0.77,meteohub,2013-04-02 19:01:00,
2013-04-02 14:06:00,37.6,0.1,30.19,NW,315,12.0,19.0,20,0.00,,,0.77,meteohub,2013-04-02 19:06:00,
2013-04-02 14:11:00,38.1,-1.7,30.19,NE,45,10.0,19.0,18,0.00,,,0.77,meteohub,2013-04-02 19:11:00,
2013-04-02 14:17:00,38.8,2.3,30.20,NE,45,16.0,16.0,21,0.00,,,0.77,meteohub,2013-04-02 19:17:00,
2013-04-02 14:22:00,39.0,-0.9,30.19,NW,315,15.0,16.0,18,0.00,,,0.77,meteohub,2013-04-02 19:22:00,
2013-04-02 14:27:00,39.0,-2.2,30.19,NW,315,15.0,17.0,17,0.00,,,0.77,meteohub,2013-04-02 19:27:00,
2013-04-02 14:33:00,39.2,-0.8,30.19,West,270,17.0,18.0,18,0.00,,,0.77,meteohub,2013-04-02 19:33:00,
2013-04-02 14:38:00,38.7,0.0,30.19,NW,315,13.0,18.0,19,0.00,,,0.77,meteohub,2013-04-02 19:38:00,
2013-04-02 14:43:00,39.0,0.1,30.19,NW,315,11.0,18.0,19,0.00,,,0.77,meteohub,2013-04-02 19:43:00,
2013-04-02 14:48:00,38.7,1.0,30.19,North,0,8.0,17.0,20,0.00,,,0.77,meteohub,2013-04-02 19:48:00,
2013-04-02 14:53:00,38.5,-1.3,30.19,North,0,9.0,17.0,18,0.00,,,0.77,meteohub,2013-04-02 19:53:00,
2013-04-02 14:59:00,38.3,-0.4,30.19,North,0,8.0,15.0,19,0.00,,,0.77,meteohub,2013-04-02 19:59:00,
2013-04-02 15:04:00,38.3,-1.5,30.19,West,270,12.0,15.0,18,0.00,,,0.77,meteohub,2013-04-02 20:04:00,
2013-04-02 15:09:00,37.4,-2.2,30.19,NW,315,11.0,14.0,18,0.00,,,0.77,meteohub,2013-04-02 20:09:00,
2013-04-02 15:15:00,38.1,-1.7,30.19,North,0,14.0,14.0,18,0.00,,,0.77,meteohub,2013-04-02 20:15:00,
2013-04-02 15:20:00,37.9,-0.8,30.19,NW,315,8.0,14.0,19,0.00,,,0.77,meteohub,2013-04-02 20:20:00,
2013-04-02 15:25:00,38.3,-1.5,30.19,NE,45,6.0,14.0,18,0.00,,,0.77,meteohub,2013-04-02 20:25:00,
2013-04-02 15:30:00,37.4,1.0,30.19,NW,315,12.0,14.0,21,0.00,,,0.77,meteohub,2013-04-02 20:30:00,
2013-04-02 15:35:00,37.8,-0.8,30.19,SW,225,9.0,15.0,19,0.00,,,0.77,meteohub,2013-04-02 20:35:00,
2013-04-02 15:40:00,37.8,0.3,30.19,West,270,11.0,15.0,20,0.00,,,0.77,meteohub,2013-04-02 20:40:00,
2013-04-02 15:45:00,38.7,-1.3,30.19,West,270,12.0,15.0,18,0.00,,,0.77,meteohub,2013-04-02 20:45:00,
2013-04-02 15:51:00,38.8,-3.5,30.19,East,90,11.0,13.0,16,0.00,,,0.77,meteohub,2013-04-02 20:51:00,
2013-04-02 15:57:00,38.8,-1.1,30.19,North,0,10.0,13.0,18,0.00,,,0.77,meteohub,2013-04-02 20:57:00,
2013-04-02 16:02:00,38.5,-1.3,30.19,NNE,23,11.0,13.0,18,0.00,,,0.77,meteohub,2013-04-02 21:02:00,
2013-04-02 16:07:00,38.3,-0.4,30.19,West,270,8.0,13.0,19,0.00,,,0.77,meteohub,2013-04-02 21:07:00,
2013-04-02 16:12:00,38.5,-0.2,30.18,West,270,11.0,12.0,19,0.00,,,0.77,meteohub,2013-04-02 21:12:00,
2013-04-02 16:17:00,38.5,-1.3,30.19,West,270,9.0,12.0,18,0.00,,,0.77,meteohub,2013-04-02 21:17:00,
2013-04-02 16:22:00,39.2,0.3,30.19,West,270,13.0,13.0,19,0.00,,,0.77,meteohub,2013-04-02 21:22:00,
2013-04-02 16:27:00,39.2,-0.8,30.19,North,0,11.0,15.0,18,0.00,,,0.77,meteohub,2013-04-02 21:27:00,
2013-04-02 16:32:00,38.8,-2.2,30.19,North,0,12.0,17.0,17,0.00,,,0.77,meteohub,2013-04-02 21:32:00,
2013-04-02 16:37:00,38.8,-1.1,30.19,NW,315,16.0,17.0,18,0.00,,,0.77,meteohub,2013-04-02 21:37:00,
2013-04-02 16:42:00,38.7,0.0,30.19,North,0,16.0,16.0,19,0.00,,,0.77,meteohub,2013-04-02 21:42:00,
2013-04-02 16:47:00,39.0,-0.9,30.19,North,0,11.0,17.0,18,0.00,,,0.77,meteohub,2013-04-02 21:47:00,
2013-04-02 16:52:00,38.8,-1.1,30.19,West,270,9.0,17.0,18,0.00,,,0.77,meteohub,2013-04-02 21:52:00,
2013-04-02 16:57:00,38.7,-1.3,30.20,NW,315,10.0,16.0,18,0.00,,,0.77,meteohub,2013-04-02 21:57:00,
2013-04-02 17:03:00,38.5,-2.6,30.19,North,0,6.0,11.0,17,0.00,,,0.77,meteohub,2013-04-02 22:03:00,
2013-04-02 17:08:00,37.9,-0.8,30.20,NNW,338,8.0,11.0,19,0.00,,,0.77,meteohub,2013-04-02 22:08:00,
2013-04-02 17:13:00,37.6,0.1,30.20,NE,45,11.0,11.0,20,0.00,,,0.77,meteohub,2013-04-02 22:13:00,
2013-04-02 17:18:00,37.4,0.0,30.20,North,0,7.0,11.0,20,0.00,,,0.77,meteohub,2013-04-02 22:18:00,
2013-04-02 17:23:00,38.1,0.5,30.20,NE,45,11.0,11.0,20,0.00,,,0.77,meteohub,2013-04-02 22:23:00,
2013-04-02 17:28:00,38.5,-0.2,30.19,West,270,6.0,11.0,19,0.00,,,0.77,meteohub,2013-04-02 22:28:00,
2013-04-02 17:33:00,37.8,-2.0,30.20,North,0,15.0,15.0,18,0.00,,,0.77,meteohub,2013-04-02 22:33:00,
2013-04-02 17:39:00,36.5,-0.8,30.21,NE,45,14.0,14.0,20,0.00,,,0.77,meteohub,2013-04-02 22:39:00,
2013-04-02 17:44:00,36.3,0.1,30.21,WNW,293,7.0,15.0,21,0.00,,,0.77,meteohub,2013-04-02 22:44:00,
2013-04-02 17:49:00,36.5,-0.8,30.21,North,0,10.0,15.0,20,0.00,,,0.77,meteohub,2013-04-02 22:49:00,
2013-04-02 17:54:00,36.1,0.0,30.21,NE,45,9.0,15.0,21,0.00,,,0.77,meteohub,2013-04-02 22:54:00,
2013-04-02 18:00:00,36.1,-1.1,30.21,North,0,16.0,16.0,20,0.00,,,0.77,meteohub,2013-04-02 23:00:00,
2013-04-02 18:05:00,36.0,-2.4,30.22,North,0,12.0,19.0,19,0.00,,,0.77,meteohub,2013-04-02 23:05:00,
2013-04-02 18:10:00,36.5,-1.8,30.22,WSW,248,10.0,19.0,19,0.00,,,0.77,meteohub,2013-04-02 23:10:00,
2013-04-02 18:16:00,36.5,-1.8,30.21,WSW,248,10.0,19.0,19,0.00,,,0.77,meteohub,2013-04-02 23:16:00,
2013-04-02 18:21:00,35.8,-0.4,30.22,North,0,9.0,12.0,21,0.00,,,0.77,meteohub,2013-04-02 23:21:00,
2013-04-02 18:26:00,35.8,0.7,30.22,NNW,338,8.0,11.0,22,0.00,,,0.77,meteohub,2013-04-02 23:26:00,
2013-04-02 18:32:00,35.2,1.0,30.22,North,0,14.0,14.0,23,0.00,,,0.77,meteohub,2013-04-02 23:32:00,
2013-04-02 18:37:00,34.9,0.9,30.22,North,0,11.0,14.0,23,0.00,,,0.77,meteohub,2013-04-02 23:37:00,
2013-04-02 18:42:00,34.5,-0.4,30.22,North,0,14.0,14.0,22,0.00,,,0.77,meteohub,2013-04-02 23:42:00,
2013-04-02 18:47:00,34.3,1.2,30.22,NNW,338,9.0,14.0,24,0.00,,,0.77,meteohub,2013-04-02 23:47:00,
2013-04-02 18:52:00,34.0,1.0,30.22,North,0,10.0,14.0,24,0.00,,,0.77,meteohub,2013-04-02 23:52:00,
2013-04-02 18:58:00,33.6,1.6,30.23,North,0,8.0,14.0,25,0.00,,,0.77,meteohub,2013-04-02 23:58:00,
2013-04-02 19:03:00,33.6,1.6,30.22,North,0,9.0,14.0,25,0.00,,,0.77,meteohub,2013-04-03 00:03:00,
2013-04-02 19:08:00,33.4,0.5,30.22,NNW,338,11.0,11.0,24,0.00,,,0.77,meteohub,2013-04-03 00:08:00,
2013-04-02 19:13:00,33.1,0.1,30.22,NE,45,9.0,11.0,24,0.00,,,0.77,meteohub,2013-04-03 00:13:00,
2013-04-02 19:18:00,32.9,0.0,30.23,North,0,12.0,14.0,24,0.00,,,0.77,meteohub,2013-04-03 00:18:00,
2013-04-02 19:24:00,32.7,0.7,30.23,East,90,8.0,14.0,25,0.00,,,0.77,meteohub,2013-04-03 00:24:00,
2013-04-02 19:30:00,32.5,0.7,30.23,North,0,7.0,14.0,25,0.00,,,0.77,meteohub,2013-04-03 00:30:00,
2013-04-02 19:35:00,32.4,0.5,30.24,SW,225,9.0,12.0,25,0.00,,,0.77,meteohub,2013-04-03 00:35:00,
2013-04-02 19:40:00,32.2,1.9,30.24,North,0,7.0,10.0,27,0.00,,,0.77,meteohub,2013-04-03 00:40:00,
2013-04-02 19:46:00,32.0,1.0,30.23,WNW,293,6.0,10.0,26,0.00,,,0.77,meteohub,2013-04-03 00:46:00,
2013-04-02 19:51:00,31.6,1.4,30.23,NW,315,6.0,9.0,27,0.00,,,0.77,meteohub,2013-04-03 00:51:00,
2013-04-02 19:57:00,31.5,1.4,30.24,NNW,338,4.0,7.0,27,0.00,,,0.77,meteohub,2013-04-03 00:57:00,
2013-04-02 20:02:00,31.5,1.4,30.24,NE,45,3.0,7.0,27,0.00,,,0.77,meteohub,2013-04-03 01:02:00,
2013-04-02 20:07:00,31.5,1.4,30.24,NW,315,7.0,7.0,27,0.00,,,0.77,meteohub,2013-04-03 01:07:00,
2013-04-02 20:12:00,31.3,1.2,30.24,North,0,4.0,7.0,27,0.00,,,0.77,meteohub,2013-04-03 01:12:00,
2013-04-02 20:17:00,31.1,1.0,30.24,NW,315,4.0,7.0,27,0.00,,,0.77,meteohub,2013-04-03 01:17:00,
2013-04-02 20:22:00,30.9,1.6,30.24,NNE,23,3.0,7.0,28,0.00,,,0.77,meteohub,2013-04-03 01:22:00,
2013-04-02 20:27:00,30.7,1.4,30.25,North,0,4.0,6.0,28,0.00,,,0.77,meteohub,2013-04-03 01:27:00,
2013-04-02 20:33:00,30.6,2.1,30.25,North,0,6.0,6.0,29,0.00,,,0.77,meteohub,2013-04-03 01:33:00,
2013-04-02 20:38:00,30.6,2.1,30.25,NNW,338,5.0,6.0,29,0.00,,,0.77,meteohub,2013-04-03 01:38:00,
2013-04-02 20:44:00,30.4,1.9,30.25,NE,45,5.0,6.0,29,0.00,,,0.77,meteohub,2013-04-03 01:44:00,
2013-04-02 20:49:00,30.0,1.6,30.25,NNE,23,6.0,6.0,29,0.00,,,0.77,meteohub,2013-04-03 01:49:00,
2013-04-02 20:54:00,30.0,1.6,30.25,North,0,5.0,5.0,29,0.00,,,0.77,meteohub,2013-04-03 01:54:00,
2013-04-02 21:00:00,30.0,1.6,30.25,North,0,8.0,8.0,29,0.00,,,0.77,meteohub,2013-04-03 02:00:00,
2013-04-02 21:05:00,30.0,1.6,30.26,North,0,8.0,8.0,29,0.00,,,0.77,meteohub,2013-04-03 02:05:00,
2013-04-02 21:11:00,29.8,1.4,30.26,West,270,6.0,8.0,29,0.00,,,0.77,meteohub,2013-04-03 02:11:00,
2013-04-02 21:16:00,29.8,1.4,30.26,West,270,5.0,8.0,29,0.00,,,0.77,meteohub,2013-04-03 02:16:00,
2013-04-02 21:22:00,29.7,1.2,30.27,West,270,5.0,8.0,29,0.00,,,0.77,meteohub,2013-04-03 02:22:00,
2013-04-02 21:27:00,29.7,1.2,30.27,West,270,5.0,7.0,29,0.00,,,0.77,meteohub,2013-04-03 02:27:00,
2013-04-02 21:32:00,29.7,1.2,30.27,North,0,4.0,5.0,29,0.00,,,0.77,meteohub,2013-04-03 02:32:00,
2013-04-02 21:38:00,29.7,1.2,30.27,North,0,4.0,5.0,29,0.76,,,1.52,meteohub,2013-04-03 02:38:00,
2013-04-02 21:43:00,29.7,1.2,30.27,North,0,4.0,5.0,29,0.76,,,1.52,meteohub,2013-04-03 02:43:00,
2013-04-02 22:09:00,28.9,1.4,30.27,West,270,3.0,-999.0,30,0.76,,,1.52,meteohub,2013-04-03 03:09:00,
2013-04-02 22:14:00,28.8,1.2,30.28,NW,315,5.0,-999.0,30,0.76,,,1.52,meteohub,2013-04-03 03:14:00,
2013-04-02 22:20:00,28.6,1.0,30.28,NE,45,5.0,5.0,30,0.76,,,1.52,meteohub,2013-04-03 03:20:00,
2013-04-02 22:25:00,28.6,1.0,30.28,SW,225,2.0,5.0,30,0.76,,,1.52,meteohub,2013-04-03 03:25:00,
2013-04-02 22:30:00,28.4,0.9,30.28,NW,315,4.0,5.0,30,0.00,,,1.52,meteohub,2013-04-03 03:30:00,
2013-04-02 22:35:00,28.2,0.7,30.28,NW,315,2.0,5.0,30,0.00,,,1.52,meteohub,2013-04-03 03:35:00,
2013-04-02 22:41:00,28.0,1.2,30.28,West,270,3.0,4.0,31,0.00,,,1.52,meteohub,2013-04-03 03:41:00,
2013-04-02 22:46:00,28.0,1.2,30.28,NE,45,2.0,4.0,31,0.00,,,1.52,meteohub,2013-04-03 03:46:00,
2013-04-02 22:51:00,27.9,1.2,30.28,NW,315,4.0,4.0,31,0.00,,,1.52,meteohub,2013-04-03 03:51:00,
2013-04-02 22:57:00,27.7,1.6,30.28,West,270,4.0,4.0,32,0.00,,,1.52,meteohub,2013-04-03 03:57:00,
2013-04-02 23:00:00,27.5,1.6,30.28,West,270,3.0,4.0,32,0.00,,,1.52,meteohub,2013-04-03 04:00:00,
2013-04-02 23:01:00,27.5,1.6,30.28,West,270,3.0,4.0,32,0.00,,,1.52,meteohub,2013-04-03 04:01:00,
2013-04-02 23:03:00,27.5,1.6,30.28,West,270,3.0,4.0,32,0.00,,,1.52,meteohub,2013-04-03 04:03:00,
2013-04-02 23:04:00,27.5,1.6,30.28,West,270,3.0,4.0,32,0.00,,,1.52,meteohub,2013-04-03 04:04:00,
2013-04-02 23:09:00,27.1,1.8,30.28,West,270,2.0,4.0,33,0.00,,,1.52,meteohub,2013-04-03 04:09:00,
2013-04-02 23:14:00,27.0,1.8,30.28,West,270,4.0,4.0,33,0.00,,,1.52,meteohub,2013-04-03 04:14:00,
2013-04-02 23:20:00,27.0,1.8,30.29,NW,315,3.0,4.0,33,0.00,,,1.52,meteohub,2013-04-03 04:20:00,
2013-04-02 23:25:00,27.1,1.8,30.28,West,270,4.0,4.0,33,0.00,,,1.52,meteohub,2013-04-03 04:25:00,
2013-04-02 23:30:00,27.1,1.8,30.29,West,270,2.0,5.0,33,0.00,,,1.52,meteohub,2013-04-03 04:30:00,
2013-04-02 23:35:00,27.3,1.4,30.29,North,0,4.0,5.0,32,0.00,,,1.52,meteohub,2013-04-03 04:35:00,
2013-04-02 23:40:00,27.7,1.6,30.28,North,0,4.0,6.0,32,0.00,,,1.52,meteohub,2013-04-03 04:40:00,
2013-04-02 23:46:00,27.7,1.6,30.28,WSW,248,2.0,6.0,32,0.00,,,1.52,meteohub,2013-04-03 04:46:00,
2013-04-02 23:51:00,27.5,1.6,30.28,North,0,4.0,4.0,32,0.00,,,1.52,meteohub,2013-04-03 04:51:00,
2013-04-02 23:57:00,27.5,1.6,30.28,NW,315,4.0,4.0,32,0.00,,,1.52,meteohub,2013-04-03 04:57:00,